Tracking 19562 objects as of 22-Mar-2019
HD Live streaming from Space Station
objects crossing your sky now

COSMOS 2368

Track COSMOS 2368 now!
COSMOS 2368 is classified as:


NORAD ID: 26042
Int'l Code: 1999-073A
Perigee: 3,454.4 km
Apogee: 36,903.6 km
Inclination: 67.0 °
Period: 717.6 minutes
Semi major axis: 26550 km
RCS: 7.9432 m2 (large)
Launch date: December 27, 1999
Source: Commonwealth of Independent States (former USSR) (CIS)
Launch site: PLESETSK MISSILE AND SPACE COMPLEX (PKMTR)
aabbcc
Your satellite tracking list
Your tracking list is empty




NASA's NSSDC Master Catalog

Two Line Element Set (TLE):
1 26042U 99073A   19079.91235415  .00000731  00000-0  00000+0 0  9998
2 26042  66.9566 130.8863 6299290 214.6835  80.5035  2.00680790140850
Source of the keplerian elements: AFSPC